Home > Weather > Rabat > Past weeks

Flag for Morocco Weather for the Past 2 Weeks in Rabat, Morocco

Now
64 °F

Broken clouds.


Feels Like: 64 °F
Forecast: 59 / 66 °F
Wind: 10 mph from Southwest

Location: Rabat-Sale

Current Time: Feb 7, 2016 at 11:43:35 AM

Latest Report: Feb 7, 2016 at 11:00 AM


Visibility: 4 mi

Pressure: 30.39 "Hg

Humidity: 64%

Dew point: 52 °F

Location of RabatLocation

Historic Weather in Rabat — Graph

°F

Rabat Temperature Yesterday

Maximum temperature yesterday: 68 °F (at 10:30 AM)
Minimum temperature yesterday: 50 °F (at 5:30 AM)
Average temperature yesterday: 60 °F

High & Low Weather Summary for the Past Weeks

 TemperatureHumidityPressure
High77 °F (Jan 24, 2:00 PM)100% (Jan 26, 12:00 AM)30.57 "Hg (Jan 26, 12:00 AM)
Low41 °F (Feb 2, 4:00 AM)29% (Feb 5, 1:00 PM)30.15 "Hg (Feb 5, 4:00 AM)
Average57 °F79%30.36 "Hg
* Reported Jan 23 10:00 AM — Feb 7 10:30 AM, Rabat, Weather by CustomWeather, © 2016

Note: Actual official high and low records may vary slightly from our data, if they occured in-between our weather recording intervals... More about our weather records

Advertising

Rabat Weather History for the Previous 24 Hours

 ConditionsComfort  
Time TempWeatherWind HumidityBarometerVisibility
10:30 AM
Sun, Feb 7
64 °FBroken clouds.10 mph68%30.39 "Hg4 mi
10:00 AM63 °FBroken clouds.9 mph73%30.39 "Hg4 mi
9:30 AM61 °FBroken clouds.10 mph77%30.39 "Hg4 mi
9:00 AM61 °FBroken clouds.10 mph77%30.36 "Hg4 mi
8:30 AM59 °FBroken clouds.10 mph82%30.36 "Hg3 mi
8:00 AM57 °FBroken clouds.12 mph88%30.36 "Hg3 mi
7:30 AM57 °FPartly sunny.10 mph88%30.33 "Hg3 mi
7:00 AM57 °FPartly sunny.9 mph88%30.33 "Hg3 mi
6:30 AM57 °FScattered clouds.8 mph88%30.33 "Hg3 mi
6:00 AM57 °FPassing clouds.8 mph88%30.33 "Hg3 mi
5:30 AM57 °FPassing clouds.9 mph88%30.30 "Hg3 mi
5:00 AM59 °FPassing clouds.8 mph82%30.30 "Hg3 mi
4:30 AM59 °FPassing clouds.10 mph82%30.30 "Hg3 mi
4:00 AM59 °FPassing clouds.10 mph88%30.30 "Hg3 mi
3:30 AM59 °FPassing clouds.13 mph88%30.30 "Hg3 mi
3:00 AM57 °FPassing clouds.10 mph88%30.30 "Hg3 mi
2:30 AM57 °FPassing clouds.9 mph88%30.30 "Hg3 mi
2:00 AM57 °FPassing clouds.6 mph88%30.30 "Hg3 mi
1:30 AM57 °FPassing clouds.6 mph88%30.30 "Hg3 mi
1:00 AM57 °FPassing clouds.6 mph88%30.30 "Hg3 mi
12:30 AM55 °FPassing clouds.6 mph94%30.30 "Hg3 mi
12:00 AM57 °FPassing clouds.6 mph88%30.30 "Hg3 mi
11:00 PM
Sat, Feb 6
57 °FPassing clouds.6 mph94%30.27 "Hg3 mi
10:30 PM57 °FPassing clouds.6 mph94%30.27 "Hg3 mi
10:00 PM59 °FPassing clouds.3 mph88%30.27 "Hg3 mi
9:00 PM57 °FPassing clouds.3 mph88%30.27 "Hg3 mi
8:30 PM59 °FPassing clouds.5 mph88%30.27 "Hg3 mi
8:00 PM59 °FPassing clouds.3 mph88%30.27 "Hg3 mi
7:30 PM61 °FPassing clouds.3 mph83%30.27 "Hg3 mi
7:00 PM63 °FPassing clouds.6 mph83%30.27 "Hg3 mi
6:30 PM63 °FPartly cloudy.6 mph83%30.27 "Hg3 mi
6:00 PM63 °FPartly cloudy.8 mph83%30.24 "Hg3 mi
5:30 PM63 °FPartly cloudy.9 mph83%30.24 "Hg3 mi
5:00 PM64 °FScattered clouds.7 mph78%30.21 "Hg5 mi
4:30 PM66 °FScattered clouds.8 mph68%30.21 "Hg5 mi
4:00 PM66 °FScattered clouds.8 mph68%30.21 "Hg5 mi
3:30 PM68 °FScattered clouds.7 mph64%30.21 "Hg5 mi
3:00 PM66 °FBroken clouds.7 mph68%30.21 "Hg5 mi
2:30 PM66 °FBroken clouds.8 mph73%30.21 "Hg5 mi
2:00 PM68 °FScattered clouds.9 mph69%30.24 "Hg5 mi
1:30 PM66 °FScattered clouds.8 mph73%30.24 "Hg5 mi
1:00 PM68 °FClear.10 mph64%30.24 "Hg5 mi
12:30 PM68 °FClear.8 mph60%30.27 "Hg5 mi
12:00 PM68 °FClear.8 mph53%30.27 "Hg5 mi
11:30 AM68 °FClear.7 mph64%30.27 "Hg5 mi
11:00 AM66 °FClear.6 mph68%30.27 "Hg5 mi
Weather by CustomWeather, © 2016

See weather overviewHow to use our weather pages